Chicago Midway, IL

9:56 AM CDT on June 25, 2017 (GMT -0500)
Chicago-Midway

Weather History for KMDW - April, 2014

Change the Weather History Date:

Saturday, April 19, 2014

  Actual Average Record
Temperature  
Mean Temperature 51 °F 52 °F  
Max Temperature 64 °F 61 °F 86 °F (1985)
Min Temperature 38 °F 43 °F 24 °F (1983)
Degree Days  
Heating Degree Days 14 14  
Month to date heating degree days 329 322  
Since 1 July heating degree days 6528 5645  
Cooling Degree Days 0 1  
Month to date cooling degree days 1 1  
Year to date cooling degree days 1 2  
Moisture  
Dew Point 35 °F    
Average Humidity 55    
Maximum Humidity 79    
Minimum Humidity 29    
Precipitation  
Precipitation 0.00 in 0.12 in 1.52 in (1970)
Month to date precipitation 1.72 2.27  
Year to date precipitation 5.30 8.99  
Sea Level Pressure  
Sea Level Pressure 30.32 in    
Wind  
Wind Speed 9 mph (East)    
Max Wind Speed 16 mph    
Max Gust Speed 19 mph    
Visibility 10 miles    
Events      
T = Trace of Precipitation, MM = Missing Value Source: NWS Daily Summary

Daily Weather History Graph

Daily Weather History Graph

Search for Another Location

Airport or City:

Trip Planner

Search our weather history database for the weather conditions in past years. The results will help you decide how hot, cold, wet, or windy it might be!

Date:

Astronomy

Apr. 19, 2014 Rise Set
Actual Time 6:04 AM CDT 7:36 PM CDT
Civil Twilight 5:35 AM CDT 8:05 PM CDT
Nautical Twilight 5:00 AM CDT 8:40 PM CDT
Astronomical Twilight 4:22 AM CDT 9:18 PM CDT
Moon No Moon Rise 9:20 AM CDT (4/19)
Length of Visible Light 14h 30m
Length of Day
13h 31m
Waning Gibbous, 78% of the Moon is Illuminated
Apr 19
Waning Gibbous
Apr 22
Last Quarter
Apr 29
New
May 6
First Quarter
May 14
Full

Hourly Weather History & Observations

Time (CDT) Temp. Windchill Dew Point Humidity Pressure Visibility Wind Dir Wind Speed Gust Speed Precip Events Conditions
12:51 AM 41.0 °F 33.9 °F 26.1 °F 55% 30.38 in 10.0 mi ENE 12.7 mph - N/A   Clear
1:51 AM 39.9 °F 33.9 °F 28.9 °F 65% 30.38 in 10.0 mi ENE 9.2 mph - N/A   Clear
2:51 AM 39.0 °F 32.8 °F 30.0 °F 70% 30.37 in 10.0 mi ENE 9.2 mph - N/A   Partly Cloudy
3:51 AM 39.2 °F 33.0 °F 30.2 °F 70% 30.35 in 10.0 mi ENE 9.2 mph - N/A   Partly Cloudy
4:51 AM 37.9 °F 32.7 °F 30.0 °F 73% 30.38 in 10.0 mi NE 6.9 mph - N/A   Clear
5:51 AM 37.9 °F 32.1 °F 32.0 °F 79% 30.39 in 10.0 mi NE 8.1 mph - N/A   Partly Cloudy
6:51 AM 39.2 °F 32.0 °F 32.0 °F 75% 30.37 in 10.0 mi ENE 11.5 mph - N/A   Partly Cloudy
7:51 AM 42.1 °F 36.1 °F 33.1 °F 70% 30.40 in 10.0 mi East 10.4 mph - N/A   Partly Cloudy
8:51 AM 45.0 °F 39.7 °F 35.1 °F 68% 30.40 in 10.0 mi East 10.4 mph - N/A   Partly Cloudy
9:51 AM 48.0 °F - 37.0 °F 66% 30.40 in 10.0 mi East 6.9 mph - N/A   Partly Cloudy
10:51 AM 50.0 °F - 37.0 °F 61% 30.38 in 10.0 mi ENE 4.6 mph - N/A   Mostly Cloudy
11:51 AM 54.0 °F - 39.0 °F 57% 30.36 in 10.0 mi Variable 6.9 mph - N/A   Mostly Cloudy
12:51 PM 57.0 °F - 39.0 °F 51% 30.35 in 10.0 mi ENE 9.2 mph - N/A   Mostly Cloudy
1:51 PM 60.1 °F - 39.9 °F 47% 30.32 in 10.0 mi East 10.4 mph - N/A   Mostly Cloudy
2:51 PM 61.0 °F - 39.9 °F 46% 30.30 in 10.0 mi East 9.2 mph - N/A   Mostly Cloudy
3:51 PM 63.0 °F - 39.0 °F 41% 30.27 in 10.0 mi East 9.2 mph - N/A   Mostly Cloudy
4:51 PM 63.0 °F - 37.9 °F 40% 30.26 in 10.0 mi East 10.4 mph - N/A   Overcast
5:51 PM 61.0 °F - 37.9 °F 42% 30.24 in 10.0 mi East 12.7 mph - N/A   Overcast
6:51 PM 59.0 °F - 37.0 °F 44% 30.24 in 10.0 mi ESE 9.2 mph - N/A   Overcast
7:51 PM 55.0 °F - 37.0 °F 51% 30.24 in 10.0 mi East 6.9 mph - N/A   Mostly Cloudy
8:51 PM 53.1 °F - 37.9 °F 57% 30.25 in 10.0 mi East 8.1 mph - N/A   Mostly Cloudy
9:51 PM 55.9 °F - 37.9 °F 51% 30.25 in 10.0 mi SE 9.2 mph - N/A   Mostly Cloudy
10:51 PM 57.9 °F - 36.0 °F 44% 30.25 in 10.0 mi SE 12.7 mph - N/A   Mostly Cloudy
11:51 PM 55.9 °F - 35.1 °F 45% 30.24 in 10.0 mi SE 10.4 mph - N/A   Mostly Cloudy